sat.trackr.live / text

‹ back to catalog

STARLINK-32021

NORAD 60148 · 2024-120P

PAYLOAD ACTIVE UNKNOWN

§ Identity

Operator
Country
US
Launch date
2024-06-27
Launch site
AFETR
Launch vehicle
Mass (kg)
RCS (m²)

Purposes: comms

External: N2YO · Heavens-Above · Gunter

§ Orbital elements

Epoch: 2026-09-21T22:27:38.588256Z

Period
94.01 min
Inclination
53.1591°
Eccentricity
0.0001142
Mean motion
15.31715697 rev/d
Perigee alt
469.9 km
Apogee alt
471.5 km
Semi-major
6,848.8 km
B*
4.5509e-5
RAAN
116.9204°
Arg perigee
84.2886°
Mean anomaly
275.8245°
Rev number
12,666

§ Raw data

STARLINK-320211 60148U 24120P   26264.93586329  .00001048  00000+0  45509-4 0  99922 60148  53.1591 116.9204 0001142  84.2886 275.8245 15.31715697126661

JSON: /api/v1/satellites/60148 · /tle

For live sub-satellite position, see the globe view (requires WebGL).

§ Visibility from observer

Set your observer location to see the next 7 days of passes ≥ 10°. The values pass through the URL so the page stays shareable.

No JS? Fill the form by hand. The geolocation button needs JavaScript.